Location: Ambatotampy
(18.8181°S, 47.6186°E)
Time: 23:43:58
(UTC+00:00)

Meteor 1-15 Rocket - Pass Details

Date: 21 January 2021
Orbit: 840 x 907 km, 81.2° (Epoch: 24 February)

Event Time Altitude Azimuth Distance (km) Brightness Sun altitude
Rises 00:09:17 0° 189° (S) 3,432 7.7 -29.7°
Reaches altitude 10° 00:11:43 10° 190° (S) 2,484 6.9 -29.3°
Enters shadow 00:16:20 59° 211° (SSW) 968 4.4 -28.4°
